Preview of NWS' New Version of Forecast
This preview is not operational and should not be used for support decisions.

Regional Weather Roundup (RWR)

Issued by Gray - Portland, ME (GYX)

                            
000
ASUS41 KGYX 182010
RWRGYX
WEATHER ROUNDUP FOR MAINE AND NEW HAMPSHIRE
NATIONAL WEATHER SERVICE GRAY ME
300 PM EST MON FEB 18 2019

MEZ002-005-006-010-012-015-018-020-021-024-026-027-029-182100-
MAINE
  
CITY           SKY/WX    TMP DP  RH WIND       PRES   REMARKS
PORTLAND       LGT SNOW  21  16  81 N12       29.88R WCI   9          
SANFORD        LGT SNOW  21  18  88 N8        29.86S FOG              
BAR HARBOR     LGT SNOW  21  15  78 N8        29.87S                  
WISCASSET      LGT SNOW  20  16  84 VRB5      29.89S FOG              
ROCKLAND       LGT SNOW  21  16  79 VRB6      29.87S                  
FRYEBURG       LGT SNOW  23  18  81 NE5       29.85S                  
LEWISTONAUBURN MIX PCPN  18  14  84 N8        29.88R FOG              
AUGUSTA        LGT SNOW  17  12  80 N9        29.88S                  
WATERVILLE     LGT SNOW  17  12  80 N9        29.86S                  
BANGOR         LGT SNOW  18  13  80 N9        29.89S                  
GREENVILLE       N/A     15  -7  37 NW8       29.77S                  
MILLINOCKET    CLOUDY    19   3  49 VRB3      29.88F                  
HOULTON        NOT AVBL                                               
PRESQUE ISLE   FAIR      14   1  56 N9        29.88S                  
FRENCHVILLE    FAIR      10  -4  53 NW16      29.83S WCI  -7          
CARIBOU        FAIR      12  -3  51 NW10      29.85S WCI  -1          
$$

NHZ002-005-008-009-011-012-014-182100-
NEW HAMPSHIRE
  
CITY           SKY/WX    TMP DP  RH WIND       PRES   REMARKS
PORTSMOUTH     LGT SNOW  23  19  85 NW9       29.84R VSB 3/4          
ROCHESTER      LGT SNOW  23  19  85 NW10      29.85R VSB 1   WCI  12  
NASHUA         LGT SNOW  28  25  86 N6        29.86R FOG              
MANCHESTER     LGT SNOW  26  21  81 N8        29.84R VSB 1            
CONCORD        LGT SNOW  24  21  88 NW7       29.86R FOG              
LACONIA        FOG       27  25  92 CALM      29.85R VSB 1            
PLYMOUTH       LGT SNOW  26  20  79 W6        29.86R                  
BERLIN         LGT SNOW  22  16  78 N6        29.82R                  
WHITEFIELD     LGT SNOW  22  16  78 W6        29.84R VSB 3/4          
JAFFREY        LGT SNOW  27  23  85 CALM      29.79R FOG              
KEENE          FLURRIES  29  23  78 NW7       29.85R                  
LEBANON        LGT SNOW  25  17  72 N6        29.88R                  
MT WASHINGTON  SNOWSHWR   3   3 100 NW25        N/A  VSB 1/16WCI -20  
$$

VTZ005-007-008-182100-
VERMONT
  
CITY           SKY/WX    TMP DP  RH WIND       PRES   REMARKS
ST JOHNSBURY     N/A     20  12  71 MISG      29.89R                  
MONTPELIER     LGT SNOW  17  13  84 NW13      29.92R FOG     WCI   4  
BURLINGTON     FLURRIES  14   5  67 N17       30.02R WCI  -3          
$$

MAZ007-012-024-CTZ003-RIZ002-NYZ038-NYZ072-182100-
SOUTHERN NEW ENGLAND AND NY
  
CITY           SKY/WX    TMP DP  RH WIND       PRES   REMARKS
BOSTON         LGT SNOW  29  24  82 NW10      29.84R WCI  20          
WORCESTER      CLOUDY    28  25  88 N3        29.78R                  
NANTUCKET      CLOUDY    36  35  96 NW12      29.78R FOG              
PROVIDENCE     LGT SNOW  33  29  85 N7        29.82S FOG              
HARTFORD       CLOUDY    32  28  85 CALM      29.85R                  
ALBANY         LGT SNOW  25  17  72 NE6       29.95R                  
NEW YORK CITY  PTSUNNY   41  32  70 W21G31    29.89R                  
$$

ANZ081-ANZ082-ANZ150-NHZ014-MEZ023>029-182100-
COASTAL MARINE OBSERVATIONS
  
STATION/POSITION TIME  TEMP    WIND        PRES    WAVE
                       AIR SEA DIR/SP/G            HT/PER
                 (UTC) (F)     (DEG/KT/KT) (MB)    (FT/S)
MOUNT DESERT ROC 2000   24      10/ 20/ 22 1010.2R
MATINICUS ROCK   1900   24      20/ 19/ 21 1009.7R
ISLE OF SHOALS   1900   23      10/ 18/ 20 1010.0R
JEFFREYS LEDGE   1938      40                N/A     5/ 6
CASHES LEDGE BUO 1850   31 40              1008.9    4/ 9
$$

.............KEY..............
   WCI - WIND CHILL
   TC  - TEMPERATURE IN CELSIUS
   VSB - VISIBILITY IN MILES
   HX  - HEAT INDEX
   FAIR- INDICATES FEW OR NO CLOUDS BELOW 12,000 FT, WITH NO 
         SIGNIFICANT WEATHER AND/OR OBSTRUCTIONS TO VISIBILITY.